Time,TemperatureF,DewpointF,PressureIn,WindDirection,WindDirectionDegrees,WindSpeedMPH,WindSpeedGustMPH,Humidity,HourlyPrecipIn,Conditions,Clouds,dailyrainin,SoftwareType,DateUTC
2013-10-19 00:04:00,55.3,26.7,30.01,SSE,163,0.0,0.0,33,0.00,,---,0.00,VWS V14.01,2013-10-19 07:04:00,
2013-10-19 00:09:00,54.9,26.4,30.01,SE,145,0.0,0.0,33,0.00,,---,0.00,VWS V14.01,2013-10-19 07:09:00,
2013-10-19 00:14:00,54.6,26.1,30.01,SSE,156,0.0,0.0,33,0.00,,---,0.00,VWS V14.01,2013-10-19 07:14:00,
2013-10-19 00:19:00,54.0,27.0,30.01,SSE,162,0.0,0.0,35,0.00,,---,0.00,VWS V14.01,2013-10-19 07:19:00,
2013-10-19 00:24:00,53.3,27.0,30.01,SSE,162,0.0,0.0,36,0.00,,---,0.00,VWS V14.01,2013-10-19 07:24:00,
2013-10-19 00:29:00,53.0,26.8,30.01,South,169,0.0,0.0,36,0.00,,---,0.00,VWS V14.01,2013-10-19 07:29:00,
2013-10-19 00:34:00,52.7,27.8,30.01,South,170,0.0,0.0,38,0.00,,---,0.00,VWS V14.01,2013-10-19 07:34:00,
2013-10-19 00:39:00,52.0,26.5,30.01,South,170,0.0,0.0,37,0.00,,---,0.00,VWS V14.01,2013-10-19 07:39:00,
2013-10-19 00:44:00,51.7,26.3,30.01,South,170,0.0,0.0,37,0.00,,---,0.00,VWS V14.01,2013-10-19 07:44:00,
2013-10-19 00:49:00,52.0,25.9,30.02,South,174,0.0,0.0,36,0.00,,---,0.00,VWS V14.01,2013-10-19 07:49:00,
2013-10-19 00:54:00,52.2,26.1,30.01,South,174,0.0,0.0,36,0.00,,---,0.00,VWS V14.01,2013-10-19 07:54:00,
2013-10-19 00:59:00,51.9,26.5,30.01,South,174,0.0,0.0,37,0.00,,---,0.00,VWS V14.01,2013-10-19 07:59:00,
2013-10-19 01:04:00,51.5,26.1,30.01,South,174,0.0,0.0,37,0.00,,---,0.00,VWS V14.01,2013-10-19 08:04:00,
2013-10-19 01:09:00,51.0,26.3,30.01,SSE,165,0.0,0.0,38,0.00,,---,0.00,VWS V14.01,2013-10-19 08:09:00,
2013-10-19 01:14:00,51.2,25.8,30.01,South,176,0.0,0.0,37,0.00,,---,0.00,VWS V14.01,2013-10-19 08:14:00,
2013-10-19 01:19:00,51.4,25.4,30.01,South,176,0.0,0.0,36,0.00,,---,0.00,VWS V14.01,2013-10-19 08:19:00,
2013-10-19 01:24:00,51.3,25.3,30.01,South,176,0.0,0.0,36,0.00,,---,0.00,VWS V14.01,2013-10-19 08:24:00,
2013-10-19 01:29:00,51.3,25.9,30.01,South,169,0.0,0.0,37,0.00,,---,0.00,VWS V14.01,2013-10-19 08:29:00,
2013-10-19 01:34:00,50.9,26.2,30.01,South,169,0.0,0.0,38,0.00,,---,0.00,VWS V14.01,2013-10-19 08:34:00,
2013-10-19 01:39:00,50.8,25.5,30.01,South,176,0.0,0.0,37,0.00,,---,0.00,VWS V14.01,2013-10-19 08:39:00,
2013-10-19 01:44:00,50.7,25.4,30.01,SSE,168,0.0,0.0,37,0.00,,---,0.00,VWS V14.01,2013-10-19 08:44:00,
2013-10-19 01:49:00,50.5,25.9,30.01,South,181,0.0,0.0,38,0.00,,---,0.00,VWS V14.01,2013-10-19 08:49:00,
2013-10-19 01:54:00,50.4,25.8,30.01,South,169,0.0,0.0,38,0.00,,---,0.00,VWS V14.01,2013-10-19 08:54:00,
2013-10-19 01:59:00,50.3,25.7,30.01,SSE,153,0.0,0.0,38,0.00,,---,0.00,VWS V14.01,2013-10-19 08:59:00,
2013-10-19 02:04:00,50.4,25.8,30.01,South,174,0.0,0.0,38,0.00,,---,0.00,VWS V14.01,2013-10-19 09:04:00,
2013-10-19 02:09:00,50.3,26.3,30.01,South,176,0.0,0.0,39,0.00,,---,0.00,VWS V14.01,2013-10-19 09:09:00,
2013-10-19 02:14:00,51.1,26.4,30.01,South,191,0.0,0.0,38,0.00,,---,0.00,VWS V14.01,2013-10-19 09:14:00,
2013-10-19 02:19:00,50.7,26.0,30.01,South,174,0.0,0.0,38,0.00,,---,0.00,VWS V14.01,2013-10-19 09:19:00,
2013-10-19 02:24:00,50.1,26.1,30.01,South,172,0.0,0.0,39,0.00,,---,0.00,VWS V14.01,2013-10-19 09:24:00,
2013-10-19 02:29:00,50.0,25.4,30.01,South,170,0.0,0.0,38,0.00,,---,0.00,VWS V14.01,2013-10-19 09:29:00,
2013-10-19 02:35:00,50.3,25.7,30.01,South,173,0.0,0.0,38,0.00,,---,0.00,VWS V14.01,2013-10-19 09:35:00,
2013-10-19 02:40:00,50.5,25.2,30.01,South,178,0.0,0.0,37,0.00,,---,0.00,VWS V14.01,2013-10-19 09:40:00,
2013-10-19 02:45:00,50.4,25.1,30.01,South,180,0.0,0.0,37,0.00,,---,0.00,VWS V14.01,2013-10-19 09:45:00,
2013-10-19 02:50:00,50.4,25.1,30.01,South,184,2.0,3.0,37,0.00,,---,0.00,VWS V14.01,2013-10-19 09:50:00,
2013-10-19 02:55:00,50.8,25.5,30.01,South,172,2.0,3.0,37,0.00,,---,0.00,VWS V14.01,2013-10-19 09:55:00,
2013-10-19 03:00:00,50.5,25.2,30.01,South,169,0.0,0.0,37,0.00,,---,0.00,VWS V14.01,2013-10-19 10:00:00,
2013-10-19 03:05:00,50.6,25.3,30.01,South,175,0.0,0.0,37,0.00,,---,0.00,VWS V14.01,2013-10-19 10:05:00,
2013-10-19 03:10:00,50.5,25.2,30.01,South,172,0.0,0.0,37,0.00,,---,0.00,VWS V14.01,2013-10-19 10:10:00,
2013-10-19 03:15:00,50.4,25.1,30.01,South,170,0.0,0.0,37,0.00,,---,0.00,VWS V14.01,2013-10-19 10:15:00,
2013-10-19 03:20:00,50.7,24.7,30.01,SSE,164,0.0,0.0,36,0.00,,---,0.00,VWS V14.01,2013-10-19 10:20:00,
2013-10-19 03:25:00,51.3,24.6,30.01,SSE,159,0.0,0.0,35,0.00,,---,0.00,VWS V14.01,2013-10-19 10:25:00,
2013-10-19 03:30:00,51.4,24.7,30.01,SSE,155,0.0,0.0,35,0.00,,---,0.00,VWS V14.01,2013-10-19 10:30:00,
2013-10-19 03:35:00,51.1,24.4,30.01,SSE,155,0.0,0.0,35,0.00,,---,0.00,VWS V14.01,2013-10-19 10:35:00,
2013-10-19 03:40:00,51.1,25.1,30.01,SE,145,0.0,0.0,36,0.00,,---,0.00,VWS V14.01,2013-10-19 10:40:00,
2013-10-19 03:45:00,50.8,24.8,30.01,SE,145,0.0,0.0,36,0.00,,---,0.00,VWS V14.01,2013-10-19 10:45:00,
2013-10-19 03:50:00,51.0,24.3,30.01,SE,143,0.0,0.0,35,0.00,,---,0.00,VWS V14.01,2013-10-19 10:50:00,
2013-10-19 03:55:00,50.8,25.5,30.01,SE,132,0.0,0.0,37,0.00,,---,0.00,VWS V14.01,2013-10-19 10:55:00,
2013-10-19 04:00:00,50.3,25.7,30.01,SSE,158,0.0,0.0,38,0.00,,---,0.00,VWS V14.01,2013-10-19 11:00:00,
2013-10-19 04:05:00,49.5,26.2,30.01,SSE,158,0.0,0.0,40,0.00,,---,0.00,VWS V14.01,2013-10-19 11:05:00,
2013-10-19 04:10:00,49.5,25.0,30.02,SSE,153,0.0,0.0,38,0.00,,---,0.00,VWS V14.01,2013-10-19 11:10:00,
2013-10-19 04:15:00,49.9,25.3,30.01,SSE,153,0.0,0.0,38,0.00,,---,0.00,VWS V14.01,2013-10-19 11:15:00,
2013-10-19 04:20:00,49.8,25.2,30.02,SSE,150,0.0,0.0,38,0.00,,---,0.00,VWS V14.01,2013-10-19 11:20:00,
2013-10-19 04:25:00,49.6,25.0,30.01,SSE,150,0.0,0.0,38,0.00,,---,0.00,VWS V14.01,2013-10-19 11:25:00,
2013-10-19 04:30:00,49.0,25.8,30.02,South,170,0.0,0.0,40,0.00,,---,0.00,VWS V14.01,2013-10-19 11:30:00,
2013-10-19 04:35:00,47.9,25.9,30.02,South,174,0.0,0.0,42,0.00,,---,0.00,VWS V14.01,2013-10-19 11:35:00,
2013-10-19 04:40:00,47.6,25.7,30.02,South,174,0.0,0.0,42,0.00,,---,0.00,VWS V14.01,2013-10-19 11:40:00,
2013-10-19 04:45:00,47.6,25.1,30.02,South,174,0.0,0.0,41,0.00,,---,0.00,VWS V14.01,2013-10-19 11:45:00,
2013-10-19 04:50:00,47.5,26.1,30.02,South,174,0.0,0.0,43,0.00,,---,0.00,VWS V14.01,2013-10-19 11:50:00,
2013-10-19 04:55:00,46.9,26.1,30.02,South,174,0.0,0.0,44,0.00,,---,0.00,VWS V14.01,2013-10-19 11:55:00,
2013-10-19 05:00:00,46.4,25.1,30.03,South,174,0.0,0.0,43,0.00,,---,0.00,VWS V14.01,2013-10-19 12:00:00,
2013-10-19 05:05:00,46.4,25.7,30.03,South,175,0.0,0.0,44,0.00,,---,0.00,VWS V14.01,2013-10-19 12:05:00,
2013-10-19 05:10:00,45.9,26.3,30.03,SSW,205,0.0,0.0,46,0.00,,---,0.00,VWS V14.01,2013-10-19 12:10:00,
2013-10-19 05:15:00,45.8,26.2,30.03,South,188,0.0,0.0,46,0.00,,---,0.00,VWS V14.01,2013-10-19 12:15:00,
2013-10-19 05:20:00,45.5,26.5,30.03,South,180,0.0,0.0,47,0.00,,---,0.00,VWS V14.01,2013-10-19 12:20:00,
2013-10-19 05:25:00,45.9,25.8,30.03,South,183,0.0,0.0,45,0.00,,---,0.00,VWS V14.01,2013-10-19 12:25:00,
2013-10-19 05:30:00,46.2,26.0,30.03,South,183,0.0,0.0,45,0.00,,---,0.00,VWS V14.01,2013-10-19 12:30:00,
2013-10-19 05:35:00,46.1,26.0,30.03,South,184,0.0,0.0,45,0.00,,---,0.00,VWS V14.01,2013-10-19 12:35:00,
2013-10-19 05:40:00,46.0,25.9,30.03,South,184,0.0,0.0,45,0.00,,---,0.00,VWS V14.01,2013-10-19 12:40:00,
2013-10-19 05:45:00,45.8,26.7,30.03,South,184,0.0,0.0,47,0.00,,---,0.00,VWS V14.01,2013-10-19 12:45:00,
2013-10-19 05:50:00,45.6,26.5,30.03,South,174,0.0,0.0,47,0.00,,---,0.00,VWS V14.01,2013-10-19 12:50:00,
2013-10-19 05:55:00,45.3,26.8,30.03,South,172,0.0,0.0,48,0.00,,---,0.00,VWS V14.01,2013-10-19 12:55:00,
2013-10-19 06:00:00,45.2,26.7,30.04,SSE,153,0.0,0.0,48,0.00,,---,0.00,VWS V14.01,2013-10-19 13:00:00,
2013-10-19 06:05:00,45.3,26.3,30.04,SSE,153,0.0,0.0,47,0.00,,---,0.00,VWS V14.01,2013-10-19 13:05:00,
2013-10-19 06:10:00,45.3,26.3,30.04,SSE,155,0.0,0.0,47,0.00,,---,0.00,VWS V14.01,2013-10-19 13:10:00,
2013-10-19 06:15:00,45.6,26.5,30.04,SE,138,0.0,0.0,47,0.00,,---,0.00,VWS V14.01,2013-10-19 13:15:00,
2013-10-19 06:20:00,45.4,26.9,30.04,SE,138,0.0,0.0,48,0.00,,---,0.00,VWS V14.01,2013-10-19 13:20:00,
2013-10-19 06:25:00,45.8,25.1,30.04,East,82,0.0,0.0,44,0.00,,---,0.00,VWS V14.01,2013-10-19 13:25:00,
2013-10-19 06:30:00,46.4,24.6,30.04,East,79,0.0,0.0,42,0.00,,---,0.00,VWS V14.01,2013-10-19 13:30:00,
2013-10-19 06:35:00,45.5,26.5,30.04,ESE,105,0.0,0.0,47,0.00,,---,0.00,VWS V14.01,2013-10-19 13:35:00,
2013-10-19 06:40:00,44.7,26.2,30.04,ESE,104,0.0,0.0,48,0.00,,---,0.00,VWS V14.01,2013-10-19 13:40:00,
2013-10-19 06:45:00,44.3,24.8,30.05,ESE,104,0.0,0.0,46,0.00,,---,0.00,VWS V14.01,2013-10-19 13:45:00,
2013-10-19 06:50:00,44.5,25.0,30.05,ESE,104,0.0,0.0,46,0.00,,---,0.00,VWS V14.01,2013-10-19 13:50:00,
2013-10-19 06:55:00,44.4,23.3,30.05,ESE,105,0.0,0.0,43,0.00,,---,0.00,VWS V14.01,2013-10-19 13:55:00,
2013-10-19 07:00:00,44.6,22.4,30.05,ESE,104,0.0,0.0,41,0.00,,---,0.00,VWS V14.01,2013-10-19 14:00:00,
2013-10-19 07:05:00,45.2,21.7,30.05,ESE,103,0.0,0.0,39,0.00,,---,0.00,VWS V14.01,2013-10-19 14:05:00,
2013-10-19 07:10:00,45.3,25.2,30.05,ESE,103,0.0,0.0,45,0.00,,---,0.00,VWS V14.01,2013-10-19 14:10:00,
2013-10-19 07:15:00,45.0,26.0,30.05,ESE,113,0.0,0.0,47,0.00,,---,0.00,VWS V14.01,2013-10-19 14:15:00,
2013-10-19 07:20:00,44.5,26.0,30.06,South,173,0.0,0.0,48,0.00,,---,0.00,VWS V14.01,2013-10-19 14:20:00,
2013-10-19 07:25:00,44.9,25.9,30.06,South,172,0.0,0.0,47,0.00,,---,0.00,VWS V14.01,2013-10-19 14:25:00,
2013-10-19 07:30:00,45.7,25.6,30.06,SSE,166,0.0,0.0,45,0.00,,---,0.00,VWS V14.01,2013-10-19 14:30:00,
2013-10-19 07:35:00,46.6,27.5,30.06,SE,138,0.0,0.0,47,0.00,,---,0.00,VWS V14.01,2013-10-19 14:35:00,
2013-10-19 07:40:00,46.7,27.0,30.06,SE,129,0.0,0.0,46,0.00,,---,0.00,VWS V14.01,2013-10-19 14:40:00,
2013-10-19 07:45:00,46.8,26.0,30.06,SE,128,0.0,0.0,44,0.00,,---,0.00,VWS V14.01,2013-10-19 14:45:00,
2013-10-19 07:50:00,47.3,26.0,30.06,SE,128,0.0,0.0,43,0.00,,---,0.00,VWS V14.01,2013-10-19 14:50:00,
2013-10-19 07:55:00,47.8,26.4,30.07,SE,128,0.0,0.0,43,0.00,,---,0.00,VWS V14.01,2013-10-19 14:55:00,
2013-10-19 08:00:00,48.7,26.1,30.07,SE,131,0.0,0.0,41,0.00,,---,0.00,VWS V14.01,2013-10-19 15:00:00,
2013-10-19 08:05:00,50.0,26.0,30.07,SE,131,0.0,0.0,39,0.00,,---,0.00,VWS V14.01,2013-10-19 15:05:00,
2013-10-19 08:10:00,51.4,26.7,30.07,SE,131,0.0,0.0,38,0.00,,---,0.00,VWS V14.01,2013-10-19 15:10:00,
2013-10-19 08:15:00,51.2,27.1,30.07,SE,130,0.0,0.0,39,0.00,,---,0.00,VWS V14.01,2013-10-19 15:15:00,
2013-10-19 08:20:00,51.0,26.9,30.07,SE,129,0.0,0.0,39,0.00,,---,0.00,VWS V14.01,2013-10-19 15:20:00,
2013-10-19 08:25:00,51.3,27.2,30.07,SE,129,0.0,0.0,39,0.00,,---,0.00,VWS V14.01,2013-10-19 15:25:00,
2013-10-19 08:30:00,51.8,27.0,30.08,SE,129,0.0,0.0,38,0.00,,---,0.00,VWS V14.01,2013-10-19 15:30:00,
2013-10-19 08:35:00,52.4,26.2,30.08,SE,130,0.0,0.0,36,0.00,,---,0.00,VWS V14.01,2013-10-19 15:35:00,
2013-10-19 08:40:00,52.5,27.6,30.08,SE,130,0.0,0.0,38,0.00,,---,0.00,VWS V14.01,2013-10-19 15:40:00,
2013-10-19 08:45:00,52.7,28.5,30.08,SE,129,0.0,0.0,39,0.00,,---,0.00,VWS V14.01,2013-10-19 15:45:00,
2013-10-19 08:50:00,52.9,28.0,30.08,SE,129,0.0,0.0,38,0.00,,---,0.00,VWS V14.01,2013-10-19 15:50:00,
2013-10-19 08:55:00,53.4,29.1,30.08,SE,129,0.0,0.0,39,0.00,,---,0.00,VWS V14.01,2013-10-19 15:55:00,
2013-10-19 09:01:00,53.9,28.9,30.08,North,8,0.0,0.0,38,0.00,,---,0.00,VWS V14.01,2013-10-19 16:01:00,
2013-10-19 09:06:00,54.6,29.5,30.08,North,8,0.0,0.0,38,0.00,,---,0.00,VWS V14.01,2013-10-19 16:06:00,
2013-10-19 09:11:00,55.3,29.5,30.08,North,8,0.0,0.0,37,0.00,,---,0.00,VWS V14.01,2013-10-19 16:11:00,
2013-10-19 09:16:00,56.1,29.5,30.08,North,8,0.0,0.0,36,0.00,,---,0.00,VWS V14.01,2013-10-19 16:16:00,
2013-10-19 09:21:00,56.7,29.4,30.08,North,8,0.0,0.0,35,0.00,,---,0.00,VWS V14.01,2013-10-19 16:21:00,
2013-10-19 09:26:00,57.3,28.5,30.08,North,1,0.0,0.0,33,0.00,,---,0.00,VWS V14.01,2013-10-19 16:26:00,
2013-10-19 09:31:00,57.6,25.6,30.08,WNW,288,0.0,0.0,29,0.00,,---,0.00,VWS V14.01,2013-10-19 16:31:00,
2013-10-19 09:36:00,58.0,26.8,30.08,NW,315,0.0,2.0,30,0.00,,---,0.00,VWS V14.01,2013-10-19 16:36:00,
2013-10-19 09:41:00,58.6,25.6,30.08,WSW,256,2.0,2.0,28,0.00,,---,0.00,VWS V14.01,2013-10-19 16:41:00,
2013-10-19 09:46:00,59.0,26.0,30.08,NW,307,1.0,1.0,28,0.00,,---,0.00,VWS V14.01,2013-10-19 16:46:00,
2013-10-19 09:51:00,59.3,24.4,30.08,WNW,301,1.0,3.0,26,0.00,,---,0.00,VWS V14.01,2013-10-19 16:51:00,
2013-10-19 09:56:00,59.7,24.8,30.08,WNW,288,0.0,3.0,26,0.00,,---,0.00,VWS V14.01,2013-10-19 16:56:00,
2013-10-19 10:01:00,60.4,24.4,30.08,NW,310,0.0,1.0,25,0.00,,---,0.00,VWS V14.01,2013-10-19 17:01:00,
2013-10-19 10:06:00,60.7,23.7,30.08,WNW,288,0.0,1.0,24,0.00,,---,0.00,VWS V14.01,2013-10-19 17:06:00,
2013-10-19 10:11:00,61.2,24.1,30.08,WNW,288,0.0,1.0,24,0.00,,---,0.00,VWS V14.01,2013-10-19 17:11:00,
2013-10-19 10:16:00,61.8,24.6,30.08,NW,316,0.0,0.0,24,0.00,,---,0.00,VWS V14.01,2013-10-19 17:16:00,
2013-10-19 10:21:00,62.4,23.1,30.08,West,278,0.0,2.0,22,0.00,,---,0.00,VWS V14.01,2013-10-19 17:21:00,
2013-10-19 10:26:00,62.8,24.5,30.08,NW,308,0.0,2.0,23,0.00,,---,0.00,VWS V14.01,2013-10-19 17:26:00,
2013-10-19 10:31:00,63.4,22.8,30.08,WNW,303,0.0,0.0,21,0.00,,---,0.00,VWS V14.01,2013-10-19 17:31:00,
2013-10-19 10:36:00,64.2,24.6,30.07,NW,317,0.0,0.0,22,0.00,,---,0.00,VWS V14.01,2013-10-19 17:36:00,
2013-10-19 10:41:00,65.1,23.1,30.07,NNE,16,0.0,0.0,20,0.00,,---,0.00,VWS V14.01,2013-10-19 17:41:00,
2013-10-19 10:46:00,65.8,21.1,30.07,NNE,15,0.0,0.0,18,0.00,,---,0.00,VWS V14.01,2013-10-19 17:46:00,
2013-10-19 10:51:00,66.5,21.7,30.07,NW,305,0.0,0.0,18,0.00,,---,0.00,VWS V14.01,2013-10-19 17:51:00,
2013-10-19 10:56:00,67.2,22.3,30.07,West,267,0.0,0.0,18,0.00,,---,0.00,VWS V14.01,2013-10-19 17:56:00,
2013-10-19 11:01:00,67.6,22.6,30.07,West,271,0.0,0.0,18,0.00,,---,0.00,VWS V14.01,2013-10-19 18:01:00,
2013-10-19 11:06:00,68.4,21.9,30.07,West,273,0.0,0.0,17,0.00,,---,0.00,VWS V14.01,2013-10-19 18:06:00,
2013-10-19 11:11:00,69.1,23.9,30.07,WNW,301,0.0,0.0,18,0.00,,---,0.00,VWS V14.01,2013-10-19 18:11:00,
2013-10-19 11:16:00,69.1,22.5,30.07,NNW,339,0.0,0.0,17,0.00,,---,0.00,VWS V14.01,2013-10-19 18:16:00,
2013-10-19 11:21:00,69.4,22.7,30.06,NW,314,0.0,3.0,17,0.00,,---,0.00,VWS V14.01,2013-10-19 18:21:00,
2013-10-19 11:26:00,69.5,21.4,30.07,NNE,33,0.0,3.0,16,0.00,,---,0.00,VWS V14.01,2013-10-19 18:26:00,
2013-10-19 11:31:00,69.7,21.5,30.06,NNE,24,0.0,4.0,16,0.00,,---,0.00,VWS V14.01,2013-10-19 18:31:00,
2013-10-19 11:36:00,70.1,21.9,30.06,ESE,105,0.0,4.0,16,0.00,,---,0.00,VWS V14.01,2013-10-19 18:36:00,
2013-10-19 11:41:00,70.5,22.2,30.06,NNE,16,2.0,5.0,16,0.00,,---,0.00,VWS V14.01,2013-10-19 18:41:00,
2013-10-19 11:46:00,70.9,22.5,30.06,ENE,64,0.0,0.0,16,0.00,,---,0.00,VWS V14.01,2013-10-19 18:46:00,
2013-10-19 11:51:00,70.7,22.3,30.06,NE,39,0.0,4.0,16,0.00,,---,0.00,VWS V14.01,2013-10-19 18:51:00,
2013-10-19 11:56:00,71.0,22.6,30.06,North,8,0.0,4.0,16,0.00,,---,0.00,VWS V14.01,2013-10-19 18:56:00,
2013-10-19 12:01:00,71.3,22.8,30.05,NNE,20,2.0,4.0,16,0.00,,---,0.00,VWS V14.01,2013-10-19 19:01:00,
2013-10-19 12:06:00,71.7,23.1,30.05,North,349,0.0,4.0,16,0.00,,---,0.00,VWS V14.01,2013-10-19 19:06:00,
2013-10-19 12:11:00,72.1,23.5,30.05,WNW,294,0.0,4.0,16,0.00,,---,0.00,VWS V14.01,2013-10-19 19:11:00,
2013-10-19 12:16:00,72.5,22.3,30.05,NNW,332,2.0,4.0,15,0.00,,---,0.00,VWS V14.01,2013-10-19 19:16:00,
2013-10-19 12:21:00,72.9,22.6,30.05,NNE,30,0.0,4.0,15,0.00,,---,0.00,VWS V14.01,2013-10-19 19:21:00,
2013-10-19 12:26:00,72.8,22.5,30.04,West,267,0.0,4.0,15,0.00,,---,0.00,VWS V14.01,2013-10-19 19:26:00,
2013-10-19 12:31:00,73.0,22.7,30.04,NE,36,2.0,2.0,15,0.00,,---,0.00,VWS V14.01,2013-10-19 19:31:00,
2013-10-19 12:36:00,73.3,21.3,30.04,NE,49,1.0,4.0,14,0.00,,---,0.00,VWS V14.01,2013-10-19 19:36:00,
2013-10-19 12:41:00,73.6,21.5,30.03,ESE,121,0.0,4.0,14,0.00,,---,0.00,VWS V14.01,2013-10-19 19:41:00,
2013-10-19 12:46:00,74.1,21.9,30.03,NE,47,0.0,2.0,14,0.00,,---,0.00,VWS V14.01,2013-10-19 19:46:00,
2013-10-19 12:51:00,74.9,20.8,30.03,East,91,0.0,3.0,13,0.00,,---,0.00,VWS V14.01,2013-10-19 19:51:00,
2013-10-19 12:56:00,75.0,20.9,30.03,NNE,27,0.0,6.0,13,0.00,,---,0.00,VWS V14.01,2013-10-19 19:56:00,
2013-10-19 13:01:00,74.8,20.7,30.03,ENE,68,0.0,0.0,13,0.00,,---,0.00,VWS V14.01,2013-10-19 20:01:00,
2013-10-19 13:06:00,75.3,21.1,30.03,ENE,59,7.0,7.0,13,0.00,,---,0.00,VWS V14.01,2013-10-19 20:06:00,
2013-10-19 13:11:00,75.0,20.9,30.02,NE,41,3.0,8.0,13,0.00,,---,0.00,VWS V14.01,2013-10-19 20:11:00,
2013-10-19 13:16:00,75.0,20.9,30.02,NNE,23,1.0,5.0,13,0.00,,---,0.00,VWS V14.01,2013-10-19 20:16:00,
2013-10-19 13:21:00,75.2,21.0,30.02,East,79,4.0,7.0,13,0.00,,---,0.00,VWS V14.01,2013-10-19 20:21:00,
2013-10-19 13:26:00,75.5,21.3,30.01,NNE,25,0.0,7.0,13,0.00,,---,0.00,VWS V14.01,2013-10-19 20:26:00,
2013-10-19 13:31:00,75.8,23.2,30.01,NW,304,4.0,4.0,14,0.00,,---,0.00,VWS V14.01,2013-10-19 20:31:00,
2013-10-19 13:37:00,75.8,21.5,30.01,NNW,342,3.0,4.0,13,0.00,,---,0.00,VWS V14.01,2013-10-19 20:37:00,
2013-10-19 13:42:00,76.2,21.8,30.00,East,91,4.0,4.0,13,0.00,,---,0.00,VWS V14.01,2013-10-19 20:42:00,
2013-10-19 13:47:00,76.1,21.7,30.00,NNE,33,4.0,9.0,13,0.00,,---,0.00,VWS V14.01,2013-10-19 20:47:00,
2013-10-19 13:52:00,76.2,21.8,30.00,NE,51,1.0,9.0,13,0.00,,---,0.00,VWS V14.01,2013-10-19 20:52:00,
2013-10-19 13:57:00,76.6,20.2,30.00,NE,55,1.0,9.0,12,0.00,,---,0.00,VWS V14.01,2013-10-19 20:57:00,
2013-10-19 14:02:00,76.9,22.4,29.99,ESE,120,1.0,3.0,13,0.00,,---,0.00,VWS V14.01,2013-10-19 21:02:00,
2013-10-19 14:07:00,77.6,21.0,29.99,WSW,249,0.0,3.0,12,0.00,,---,0.00,VWS V14.01,2013-10-19 21:07:00,
2013-10-19 14:12:00,77.5,22.8,29.99,East,96,0.0,3.0,13,0.00,,---,0.00,VWS V14.01,2013-10-19 21:12:00,
2013-10-19 14:17:00,77.9,21.2,29.99,East,95,2.0,6.0,12,0.00,,---,0.00,VWS V14.01,2013-10-19 21:17:00,
2013-10-19 14:22:00,77.9,19.2,29.99,NE,44,4.0,6.0,11,0.00,,---,0.00,VWS V14.01,2013-10-19 21:22:00,
2013-10-19 14:27:00,77.3,20.8,29.99,WNW,302,0.0,6.0,12,0.00,,---,0.00,VWS V14.01,2013-10-19 21:27:00,
2013-10-19 14:32:00,77.8,21.2,29.99,WSW,238,0.0,0.0,12,0.00,,---,0.00,VWS V14.01,2013-10-19 21:32:00,
2013-10-19 14:37:00,77.7,19.0,29.98,ENE,71,0.0,5.0,11,0.00,,---,0.00,VWS V14.01,2013-10-19 21:37:00,
2013-10-19 14:42:00,77.6,21.0,29.98,NNW,344,0.0,5.0,12,0.00,,---,0.00,VWS V14.01,2013-10-19 21:42:00,
2013-10-19 14:47:00,77.7,19.0,29.98,NNE,14,0.0,6.0,11,0.00,,---,0.00,VWS V14.01,2013-10-19 21:47:00,
2013-10-19 14:52:00,77.8,23.1,29.98,NNW,342,1.0,9.0,13,0.00,,---,0.00,VWS V14.01,2013-10-19 21:52:00,
2013-10-19 14:57:00,78.2,21.5,29.98,North,1,0.0,9.0,12,0.00,,---,0.00,VWS V14.01,2013-10-19 21:57:00,
2013-10-19 15:02:00,78.4,21.6,29.98,SSE,148,0.0,0.0,12,0.00,,---,0.00,VWS V14.01,2013-10-19 22:02:00,
2013-10-19 15:07:00,78.9,20.0,29.98,NNW,337,0.0,2.0,11,0.00,,---,0.00,VWS V14.01,2013-10-19 22:07:00,
2013-10-19 15:12:00,78.7,21.9,29.97,North,354,0.0,2.0,12,0.00,,---,0.00,VWS V14.01,2013-10-19 22:12:00,
2013-10-19 15:17:00,79.4,20.4,29.97,ESE,116,0.0,1.0,11,0.00,,---,0.00,VWS V14.01,2013-10-19 22:17:00,
2013-10-19 15:22:00,80.0,20.8,29.97,SSW,207,0.0,1.0,11,0.00,,---,0.00,VWS V14.01,2013-10-19 22:22:00,
2013-10-19 15:27:00,80.3,18.8,29.97,SE,136,0.0,1.0,10,0.00,,---,0.00,VWS V14.01,2013-10-19 22:27:00,
2013-10-19 15:32:00,80.9,19.3,29.97,East,95,0.0,0.0,10,0.00,,---,0.00,VWS V14.01,2013-10-19 22:32:00,
2013-10-19 15:37:00,80.5,21.2,29.97,SE,141,0.0,0.0,11,0.00,,---,0.00,VWS V14.01,2013-10-19 22:37:00,
2013-10-19 15:42:00,80.3,18.8,29.96,NE,51,1.0,4.0,10,0.00,,---,0.00,VWS V14.01,2013-10-19 22:42:00,
2013-10-19 15:47:00,79.7,18.4,29.96,East,87,0.0,0.0,10,0.00,,---,0.00,VWS V14.01,2013-10-19 22:47:00,
2013-10-19 15:52:00,79.6,18.3,29.96,West,269,0.0,0.0,10,0.00,,---,0.00,VWS V14.01,2013-10-19 22:52:00,
2013-10-19 15:57:00,79.6,18.3,29.96,NNW,335,0.0,0.0,10,0.00,,---,0.00,VWS V14.01,2013-10-19 22:57:00,
2013-10-19 16:02:00,79.5,18.2,29.95,NE,55,0.0,2.0,10,0.00,,---,0.00,VWS V14.01,2013-10-19 23:02:00,
2013-10-19 16:09:00,79.4,18.1,29.95,ENE,77,0.0,3.0,10,0.00,,---,0.00,VWS V14.01,2013-10-19 23:09:00,
2013-10-19 16:14:00,80.8,16.8,29.95,East,79,0.0,0.0,9,0.00,,---,0.00,VWS V14.01,2013-10-19 23:14:00,
2013-10-19 16:19:00,80.6,16.6,29.95,NE,37,0.0,0.0,9,0.00,,---,0.00,VWS V14.01,2013-10-19 23:19:00,
2013-10-19 16:24:00,80.3,16.4,29.95,NE,44,0.0,0.0,9,0.00,,---,0.00,VWS V14.01,2013-10-19 23:24:00,
2013-10-19 16:29:00,81.0,16.9,29.95,SE,136,0.0,0.0,9,0.00,,---,0.00,VWS V14.01,2013-10-19 23:29:00,
2013-10-19 16:34:00,82.1,17.7,29.95,South,174,0.0,0.0,9,0.00,,---,0.00,VWS V14.01,2013-10-19 23:34:00,
2013-10-19 16:39:00,82.4,20.4,29.95,South,180,0.0,0.0,10,0.00,,---,0.00,VWS V14.01,2013-10-19 23:39:00,
2013-10-19 16:44:00,82.1,17.7,29.95,NNE,16,1.0,1.0,9,0.00,,---,0.00,VWS V14.01,2013-10-19 23:44:00,
2013-10-19 16:49:00,80.8,16.8,29.95,NNE,30,0.0,2.0,9,0.00,,---,0.00,VWS V14.01,2013-10-19 23:49:00,
2013-10-19 16:54:00,80.4,18.9,29.95,NNE,33,0.0,2.0,10,0.00,,---,0.00,VWS V14.01,2013-10-19 23:54:00,
2013-10-19 16:59:00,80.1,16.2,29.95,ENE,70,0.0,0.0,9,0.00,,---,0.00,VWS V14.01,2013-10-19 23:59:00,
2013-10-19 17:04:00,79.9,18.5,29.95,ENE,69,0.0,0.0,10,0.00,,---,0.00,VWS V14.01,2013-10-20 00:04:00,
2013-10-19 17:09:00,80.0,16.2,29.94,East,98,0.0,0.0,9,0.00,,---,0.00,VWS V14.01,2013-10-20 00:09:00,
2013-10-19 17:14:00,81.6,19.8,29.94,East,101,0.0,0.0,10,0.00,,---,0.00,VWS V14.01,2013-10-20 00:14:00,
2013-10-19 17:19:00,81.3,17.1,29.94,ESE,111,0.0,0.0,9,0.00,,---,0.00,VWS V14.01,2013-10-20 00:19:00,
2013-10-19 17:24:00,80.7,19.1,29.94,SSE,168,0.0,0.0,10,0.00,,---,0.00,VWS V14.01,2013-10-20 00:24:00,
2013-10-19 17:29:00,81.4,19.7,29.94,ESE,105,0.0,0.0,10,0.00,,---,0.00,VWS V14.01,2013-10-20 00:29:00,
2013-10-19 17:34:00,80.7,19.1,29.94,ESE,104,0.0,0.0,10,0.00,,---,0.00,VWS V14.01,2013-10-20 00:34:00,
2013-10-19 17:39:00,80.2,16.3,29.94,ESE,105,0.0,0.0,9,0.00,,---,0.00,VWS V14.01,2013-10-20 00:39:00,
2013-10-19 17:44:00,80.0,16.2,29.94,ESE,105,0.0,0.0,9,0.00,,---,0.00,VWS V14.01,2013-10-20 00:44:00,
2013-10-19 17:49:00,80.1,18.7,29.94,SSE,153,0.0,0.0,10,0.00,,---,0.00,VWS V14.01,2013-10-20 00:49:00,
2013-10-19 17:54:00,80.3,21.1,29.94,SSE,153,0.0,0.0,11,0.00,,---,0.00,VWS V14.01,2013-10-20 00:54:00,
2013-10-19 17:59:00,79.0,24.0,29.94,SW,214,0.0,0.0,13,0.00,,---,0.00,VWS V14.01,2013-10-20 00:59:00,
2013-10-19 18:04:00,77.2,26.0,29.94,SSW,200,0.0,0.0,15,0.00,,---,0.00,VWS V14.01,2013-10-20 01:04:00,
2013-10-19 18:09:00,75.6,26.3,29.94,SSW,208,0.0,0.0,16,0.00,,---,0.00,VWS V14.01,2013-10-20 01:09:00,
2013-10-19 18:14:00,74.3,26.7,29.94,SSW,204,0.0,0.0,17,0.00,,---,0.00,VWS V14.01,2013-10-20 01:14:00,
2013-10-19 18:19:00,73.2,27.2,29.94,South,181,0.0,0.0,18,0.00,,---,0.00,VWS V14.01,2013-10-20 01:19:00,
2013-10-19 18:24:00,72.2,27.7,29.94,SSW,193,0.0,0.0,19,0.00,,---,0.00,VWS V14.01,2013-10-20 01:24:00,
2013-10-19 18:29:00,71.4,27.0,29.94,SSW,195,0.0,0.0,19,0.00,,---,0.00,VWS V14.01,2013-10-20 01:29:00,
2013-10-19 18:34:00,70.6,28.8,29.94,SSE,165,0.0,0.0,21,0.00,,---,0.00,VWS V14.01,2013-10-20 01:34:00,
2013-10-19 18:39:00,69.9,27.0,29.94,South,169,0.0,0.0,20,0.00,,---,0.00,VWS V14.01,2013-10-20 01:39:00,
2013-10-19 18:44:00,69.7,25.6,29.94,SSE,167,0.0,0.0,19,0.00,,---,0.00,VWS V14.01,2013-10-20 01:44:00,
2013-10-19 18:49:00,69.5,25.5,29.94,South,180,0.0,0.0,19,0.00,,---,0.00,VWS V14.01,2013-10-20 01:49:00,
2013-10-19 18:54:00,69.2,25.2,29.95,South,188,0.0,0.0,19,0.00,,---,0.00,VWS V14.01,2013-10-20 01:54:00,
2013-10-19 18:59:00,68.8,24.9,29.95,SSW,197,0.0,0.0,19,0.00,,---,0.00,VWS V14.01,2013-10-20 01:59:00,
2013-10-19 19:04:00,68.4,24.6,29.95,South,190,0.0,0.0,19,0.00,,---,0.00,VWS V14.01,2013-10-20 02:04:00,
2013-10-19 19:09:00,68.2,24.4,29.95,South,178,0.0,0.0,19,0.00,,---,0.00,VWS V14.01,2013-10-20 02:09:00,
2013-10-19 19:15:00,68.1,24.3,29.95,SSW,210,0.0,0.0,19,0.00,,---,0.00,VWS V14.01,2013-10-20 02:15:00,
2013-10-19 19:20:00,68.2,26.8,29.95,SSW,198,0.0,0.0,21,0.00,,---,0.00,VWS V14.01,2013-10-20 02:20:00,
2013-10-19 19:25:00,69.2,28.8,29.95,South,184,0.0,2.0,22,0.00,,---,0.00,VWS V14.01,2013-10-20 02:25:00,
2013-10-19 19:30:00,70.4,29.8,29.95,SW,214,0.0,0.0,22,0.00,,---,0.00,VWS V14.01,2013-10-20 02:30:00,
2013-10-19 19:35:00,71.0,30.3,29.96,South,188,0.0,1.0,22,0.00,,---,0.00,VWS V14.01,2013-10-20 02:35:00,
2013-10-19 19:40:00,71.2,30.4,29.96,SE,134,0.0,2.0,22,0.00,,---,0.00,VWS V14.01,2013-10-20 02:40:00,
2013-10-19 19:45:00,70.9,30.2,29.96,WSW,253,0.0,0.0,22,0.00,,---,0.00,VWS V14.01,2013-10-20 02:45:00,
2013-10-19 19:50:00,71.0,29.1,29.96,SW,226,0.0,0.0,21,0.00,,---,0.00,VWS V14.01,2013-10-20 02:50:00,
2013-10-19 19:55:00,71.3,29.4,29.96,West,277,0.0,3.0,21,0.00,,---,0.00,VWS V14.01,2013-10-20 02:55:00,
2013-10-19 20:00:00,70.8,29.0,29.96,WSW,253,0.0,0.0,21,0.00,,---,0.00,VWS V14.01,2013-10-20 03:00:00,
2013-10-19 20:05:00,71.5,29.5,29.96,SW,219,0.0,0.0,21,0.00,,---,0.00,VWS V14.01,2013-10-20 03:05:00,
2013-10-19 20:10:00,71.3,29.4,29.96,SW,219,0.0,0.0,21,0.00,,---,0.00,VWS V14.01,2013-10-20 03:10:00,
2013-10-19 20:15:00,71.2,29.3,29.96,SSW,203,0.0,3.0,21,0.00,,---,0.00,VWS V14.01,2013-10-20 03:15:00,
2013-10-19 20:20:00,71.1,29.2,29.96,WSW,240,3.0,5.0,21,0.00,,---,0.00,VWS V14.01,2013-10-20 03:20:00,
2013-10-19 20:25:00,70.9,29.0,29.96,WSW,240,1.0,5.0,21,0.00,,---,0.00,VWS V14.01,2013-10-20 03:25:00,
2013-10-19 20:30:00,70.7,28.9,29.96,West,277,0.0,0.0,21,0.00,,---,0.00,VWS V14.01,2013-10-20 03:30:00,
2013-10-19 20:35:00,70.0,29.4,29.96,NNW,335,3.0,3.0,22,0.00,,---,0.00,VWS V14.01,2013-10-20 03:35:00,
2013-10-19 20:40:00,68.5,28.2,29.96,WNW,294,1.0,3.0,22,0.00,,---,0.00,VWS V14.01,2013-10-20 03:40:00,
2013-10-19 20:45:00,67.4,28.4,29.96,WNW,294,2.0,2.0,23,0.00,,---,0.00,VWS V14.01,2013-10-20 03:45:00,
2013-10-19 20:50:00,66.9,29.0,29.96,West,264,0.0,3.0,24,0.00,,---,0.00,VWS V14.01,2013-10-20 03:50:00,
2013-10-19 20:55:00,66.1,29.3,29.97,West,264,0.0,3.0,25,0.00,,---,0.00,VWS V14.01,2013-10-20 03:55:00,
2013-10-19 21:00:00,65.5,28.8,29.97,West,264,0.0,0.0,25,0.00,,---,0.00,VWS V14.01,2013-10-20 04:00:00,
2013-10-19 21:01:00,65.3,28.6,29.97,West,264,0.0,0.0,25,0.00,,---,0.00,VWS V14.01,2013-10-20 04:01:00,
2013-10-19 21:02:00,65.2,28.5,29.97,West,264,0.0,0.0,25,0.00,,---,0.00,VWS V14.01,2013-10-20 04:02:00,
2013-10-19 21:05:00,64.9,28.3,29.97,West,264,0.0,0.0,25,0.00,,---,0.00,VWS V14.01,2013-10-20 04:05:00,
2013-10-19 21:10:00,64.3,27.8,29.97,West,264,0.0,0.0,25,0.00,,---,0.00,VWS V14.01,2013-10-20 04:10:00,
2013-10-19 21:13:00,63.9,28.4,29.97,West,264,0.0,0.0,26,0.00,,---,0.00,VWS V14.01,2013-10-20 04:13:00,
2013-10-19 21:14:00,63.7,28.2,29.97,West,264,0.0,0.0,26,0.00,,---,0.00,VWS V14.01,2013-10-20 04:14:00,
2013-10-19 21:19:00,63.3,28.8,29.97,West,264,0.0,0.0,27,0.00,,---,0.00,VWS V14.01,2013-10-20 04:19:00,
2013-10-19 21:24:00,63.2,29.6,29.97,SE,128,1.0,1.0,28,0.00,,---,0.00,VWS V14.01,2013-10-20 04:24:00,
2013-10-19 21:29:00,63.3,28.8,29.97,SE,128,0.0,0.0,27,0.00,,---,0.00,VWS V14.01,2013-10-20 04:29:00,
2013-10-19 21:34:00,63.7,29.1,29.97,SE,129,0.0,0.0,27,0.00,,---,0.00,VWS V14.01,2013-10-20 04:34:00,
2013-10-19 21:39:00,63.6,29.9,29.97,SE,127,0.0,0.0,28,0.00,,---,0.00,VWS V14.01,2013-10-20 04:39:00,
2013-10-19 21:44:00,62.6,29.9,29.97,SE,127,0.0,0.0,29,0.00,,---,0.00,VWS V14.01,2013-10-20 04:44:00,
2013-10-19 21:49:00,62.1,28.6,29.98,SE,127,0.0,0.0,28,0.00,,---,0.00,VWS V14.01,2013-10-20 04:49:00,
2013-10-19 21:54:00,62.0,29.4,29.98,East,101,2.0,2.0,29,0.00,,---,0.00,VWS V14.01,2013-10-20 04:54:00,
2013-10-19 21:59:00,61.5,29.8,29.98,ESE,120,0.0,2.0,30,0.00,,---,0.00,VWS V14.01,2013-10-20 04:59:00,
2013-10-19 22:04:00,61.2,29.5,29.98,ESE,122,0.0,2.0,30,0.00,,---,0.00,VWS V14.01,2013-10-20 05:04:00,
2013-10-19 22:09:00,61.7,29.1,29.98,ESE,122,1.0,2.0,29,0.00,,---,0.00,VWS V14.01,2013-10-20 05:09:00,
2013-10-19 22:14:00,61.6,29.9,29.97,SSE,158,0.0,0.0,30,0.00,,---,0.00,VWS V14.01,2013-10-20 05:14:00,
2013-10-19 22:19:00,60.7,29.9,29.98,SSE,158,0.0,0.0,31,0.00,,---,0.00,VWS V14.01,2013-10-20 05:19:00,
2013-10-19 22:24:00,59.8,29.9,29.98,SSE,158,0.0,0.0,32,0.00,,---,0.00,VWS V14.01,2013-10-20 05:24:00,
2013-10-19 22:29:00,59.5,29.6,29.98,SSE,158,0.0,0.0,32,0.00,,---,0.00,VWS V14.01,2013-10-20 05:29:00,
2013-10-19 22:34:00,58.8,29.8,29.97,SSE,158,0.0,0.0,33,0.00,,---,0.00,VWS V14.01,2013-10-20 05:34:00,
2013-10-19 22:40:00,58.3,30.1,29.98,SSE,158,0.0,0.0,34,0.00,,---,0.00,VWS V14.01,2013-10-20 05:40:00,
2013-10-19 22:45:00,57.9,30.4,29.97,SSE,158,0.0,0.0,35,0.00,,---,0.00,VWS V14.01,2013-10-20 05:45:00,
2013-10-19 22:50:00,57.8,30.4,29.97,SSE,158,0.0,0.0,35,0.00,,---,0.00,VWS V14.01,2013-10-20 05:50:00,
2013-10-19 22:55:00,57.3,29.9,29.97,SSE,158,0.0,0.0,35,0.00,,---,0.00,VWS V14.01,2013-10-20 05:55:00,
2013-10-19 23:00:00,57.2,30.5,29.97,SSE,168,0.0,0.0,36,0.00,,---,0.00,VWS V14.01,2013-10-20 06:00:00,
2013-10-19 23:05:00,57.2,31.2,29.97,SSE,168,0.0,0.0,37,0.00,,---,0.00,VWS V14.01,2013-10-20 06:05:00,
2013-10-19 23:10:00,57.0,31.0,29.97,South,169,0.0,0.0,37,0.00,,---,0.00,VWS V14.01,2013-10-20 06:10:00,
2013-10-19 23:15:00,56.4,31.8,29.97,WSW,248,0.0,0.0,39,0.00,,---,0.00,VWS V14.01,2013-10-20 06:15:00,
2013-10-19 23:20:00,56.5,31.2,29.97,SSE,153,0.0,0.0,38,0.00,,---,0.00,VWS V14.01,2013-10-20 06:20:00,
2013-10-19 23:25:00,56.2,31.6,29.96,SSE,163,0.0,0.0,39,0.00,,---,0.00,VWS V14.01,2013-10-20 06:25:00,
2013-10-19 23:30:00,56.8,31.5,29.96,SSE,153,0.0,0.0,38,0.00,,---,0.00,VWS V14.01,2013-10-20 06:30:00,
2013-10-19 23:35:00,56.3,31.7,29.96,SSE,154,0.0,0.0,39,0.00,,---,0.00,VWS V14.01,2013-10-20 06:35:00,
2013-10-19 23:40:00,55.9,31.3,29.96,SE,131,0.0,0.0,39,0.00,,---,0.00,VWS V14.01,2013-10-20 06:40:00,
2013-10-19 23:45:00,55.8,31.9,29.96,SSE,155,0.0,0.0,40,0.00,,---,0.00,VWS V14.01,2013-10-20 06:45:00,
2013-10-19 23:50:00,55.5,31.6,29.96,SW,231,2.0,3.0,40,0.00,,---,0.00,VWS V14.01,2013-10-20 06:50:00,
2013-10-19 23:55:00,55.6,31.7,29.96,SW,214,1.0,4.0,40,0.00,,---,0.00,VWS V14.01,2013-10-20 06:55:00,